This is the latest recevied weather packets stored in our database for station/object OK0BH-6. If no packets are shown the sender has not sent any weather packets the latest 10 day(s).
| Time | Temp. | Humidity | Pressure | Rain* | Wind** | Luminosity | Snow |
|---|---|---|---|---|---|---|---|
| 1777831519 | 20° C | 31% | 1016.2 hPa | - | - | - | - |
| 1777830944 | 20.56° C | 30% | 1016 hPa | - | - | - | - |
| 1777830370 | 20.56° C | 30% | 1016.1 hPa | - | - | - | - |
| 1777829794 | 21.11° C | 30% | 1016.1 hPa | - | - | - | - |
| 1777829220 | 21.67° C | 30% | 1016 hPa | - | - | - | - |
| 1777828645 | 21.67° C | 30% | 1016.1 hPa | - | - | - | - |
| 1777828070 | 22.22° C | 30% | 1016.1 hPa | - | - | - | - |
| 1777827495 | 22.22° C | 30% | 1016.1 hPa | - | - | - | - |
| 1777826920 | 22.22° C | 30% | 1016.2 hPa | - | - | - | - |
| 1777826345 | 22.78° C | 30% | 1016.2 hPa | - | - | - | - |
| 1777825770 | 22.78° C | 30% | 1016.1 hPa | - | - | - | - |
| 1777825409 | 22.78° C | 30% | 1016.2 hPa | - | - | - | - |
| 1777825196 | 22.78° C | 30% | 1016.2 hPa | - | - | - | - |
| 1777824621 | 22.78° C | 30% | 1016.1 hPa | - | - | - | - |
| 1777824046 | 23.33° C | 30% | 1016.3 hPa | - | - | - | - |
| 1777823471 | 23.33° C | 30% | 1016.3 hPa | - | - | - | - |
| 1777822896 | 23.33° C | 30% | 1016.5 hPa | - | - | - | - |
| 1777822321 | 23.33° C | 30% | 1016.5 hPa | - | - | - | - |
| 1777821747 | 23.33° C | 29% | 1016.6 hPa | - | - | - | - |
| 1777821171 | 23.89° C | 30% | 1016.8 hPa | - | - | - | - |
| 1777820597 | 23.33° C | 30% | 1016.8 hPa | - | - | - | - |
| 1777820022 | 23.33° C | 30% | 1016.8 hPa | - | - | - | - |
| 1777819447 | 23.33° C | 30% | 1016.9 hPa | - | - | - | - |
| 1777818872 | 23.33° C | 30% | 1016.8 hPa | - | - | - | - |
| 1777818297 | 23.89° C | 30% | 1017 hPa | - | - | - | - |
* Rain since midnight (hover to see other rain measurements)
** Current wind speed in m/s (hover to see current wind gust speed)